User: anonymous   Login
Location: Unspecified
(48.5670°N, 0.0000°E)
Time: 12:03:40
(UTC+00:00)
Language:

Vanguard 2 - Orbit

View from above orbital plane
View from above orbital plane
View from above satellite
View from above satellite

Ground track
Ground track

The orbit data is extracted from the following two-line orbital elements,

1    11U 59001A   19230.84926283 -.00000053 +00000-0 -35553-4 0  9999
2    11 032.8718 115.2067 1467760 337.5685 016.6620 11.85610394580678
Epoch (UTC): 18 August 2019 20:22:56
Eccentricity: 0.1467760
inclination: 32.8718°
perigee height: 553 km
apogee height: 2938 km
right ascension of ascending node: 115.2067°
argument of perigee: 337.5685°
revolutions per day: 11.85610394
mean anomaly at epoch: 16.6620°
orbit number at epoch: 58067

The dashed part of the orbit path shows where the satellite is in the earth's shadow,  

DLR